DW9314 Weather Reports


Display with metric or nautical units.
time (UTC)temp
F
wind
direction
speed
MPH
gust
MPH
rain 1hr
in
rain 24hr
in
rain mn
in
humidity
%
barometer
mb
20200604153041 81 233 1.0 5.0 0.00 0.00 0.00 57 1011.5
20200604151558 80 261 0.0 3.0 0.00 0.00 0.00 56 1011.6
20200604150050 79 294 0.0 6.0 0.00 0.00 0.00 51 1011.8
20200604144509 77 25 0.0 5.0 0.00 0.00 0.00 36 1011.6
20200604143002 76 201 1.0 4.0 0.00 0.00 0.00 32 1011.5
20200604141710 76 227 0.0 2.0 0.00 0.00 0.00 100 1011.3
20200604140114 74 5 0.0 6.0 0.00 0.00 0.00 100 1011.3
20200604134733 74 29 4.0 7.0 0.00 0.00 0.00 100 1011.1
20200604133110 73 228 2.0 7.0 0.00 0.00 0.00 100 1010.9
20200604131551 72 238 1.0 5.0 0.00 0.00 0.00 100 1010.7
20200604130056 72 9 0.0 6.0 0.00 0.00 0.00 100 1010.6
20200604124516 71 191 0.0 3.0 0.00 0.00 0.00 100 1010.5
20200604123027 70 267 1.0 5.0 0.00 0.00 0.00 100 1010.3
20200604121732 69 245 1.0 5.0 0.00 0.00 0.00 100 1010.1
20200604120111 68 225 0.0 3.0 0.00 0.00 0.00 100 1010.0
20200604114534 67 277 0.0 2.0 0.00 0.00 0.00 100 1009.8
20200604113018 66 274 0.0 4.0 0.00 0.00 0.00 100 1009.6
20200604111710 65 260 0.0 3.0 0.00 0.00 0.00 100 1009.5
20200604110144 65 227 0.0 1.0 0.00 0.00 0.00 100 1009.4
20200604104557 64 227 0.0 1.0 0.00 0.00 0.00 100 1009.3
20200604103031 64 227 0.0 2.0 0.00 0.00 0.00 100 1009.3
20200604101514 64 215 0.0 2.0 0.00 0.00 0.00 100 1008.9
20200604100154 64 215 0.0 1.0 0.00 0.00 0.00 100 1008.7
20200604094611 64 215 0.0 1.0 0.00 0.00 0.00 100 1008.5
20200604093051 64 263 0.0 1.0 0.00 0.00 0.00 100 1008.4
20200604091512 64 263 0.0 1.0 0.00 0.00 0.00 100 1008.0
20200604090021 64 263 0.0 2.0 0.00 0.00 0.00 100 1007.8
20200604084607 64 241 0.0 3.0 0.00 0.00 0.00 100 1007.7
20200604083128 64 228 0.0 2.0 0.00 0.00 0.00 100 1007.6
20200604081604 64 228 0.0 2.0 0.00 0.00 0.00 100 1007.3
20200604080045 64 228 0.0 2.0 0.00 0.00 0.00 100 1007.3
20200604074524 65 228 0.0 3.0 0.00 0.00 0.00 100 1007.2
20200604073127 65 226 0.0 2.0 0.00 0.00 0.00 100 1007.1
20200604071536 65 216 0.0 1.0 0.00 0.00 0.00 100 1007.3
20200604070205 65 216 0.0 2.0 0.00 0.00 0.00 100 1007.0
20200604064507 65 216 0.0 2.0 0.00 0.00 0.00 100 1006.8
20200604063116 65 261 0.0 2.0 0.00 0.00 0.00 100 1006.7
20200604061616 65 206 0.0 1.0 0.00 0.00 0.00 100 1006.7
20200604060053 65 197 0.0 1.0 0.00 0.00 0.00 100 1006.6
20200604054537 65 197 0.0 1.0 0.00 0.00 0.00 100 1006.5
20200604053006 65 197 0.0 1.0 0.00 0.00 0.00 100 1006.3
20200604051655 65 165 0.0 1.0 0.00 0.00 0.00 100 1006.3
20200604050130 65 165 0.0 3.0 0.00 0.00 0.00 100 1006.1
20200604044533 65 228 0.0 2.0 0.00 0.00 0.00 100 1006.0
20200604043010 65 228 0.0 2.0 0.00 0.00 0.00 100 1006.0
20200604041631 65 228 0.0 2.0 0.00 0.00 0.00 100 1005.9
20200604040122 65 163 0.0 2.0 0.00 0.00 0.00 100 1005.7
20200604034530 64 160 0.0 1.0 0.00 0.00 0.00 100 1005.5
20200604033115 64 160 0.0 1.0 0.00 0.00 0.00 100 1005.3
20200604031523 65 160 0.0 1.0 0.00 0.00 0.00 100 1005.3
20200604030042 65 160 0.0 1.0 0.00 0.00 0.00 100 1005.0
20200604024509 65 160 0.0 1.0 0.00 0.00 0.00 100 1005.2
20200604023017 65 155 0.0 1.0 0.00 0.00 0.00 100 1005.0
20200604021746 65 155 0.0 1.0 0.00 0.00 0.00 100 1005.0
20200604020208 65 155 0.0 3.0 0.00 0.00 0.00 100 1005.1
20200604014558 66 132 0.0 2.0 0.00 0.00 0.00 100 1004.9
20200604013038 66 100 0.0 3.0 0.00 0.00 0.00 100 1004.8
20200604011526 67 46 0.0 11.0 0.00 0.00 0.00 100 1005.2
20200604010007 74 18 2.0 5.0 0.00 0.00 0.00 100 1004.4
20200604004506 75 234 0.0 4.0 0.00 0.00 0.00 7 1003.3
20200604003112 75 234 0.0 1.0 0.00 0.00 0.00 14 1003.0
20200604001607 76 234 0.0 4.0 0.00 0.00 0.00 28 1002.8
20200604000128 76 242 0.0 3.0 0.00 0.00 0.00 31 1002.9
20200603234621 77 189 0.0 4.0 0.00 0.00 0.00 39 1002.6
20200603233108 77 269 0.0 4.0 0.00 0.00 0.00 42 1002.2
20200603231525 77 246 0.0 2.0 0.00 0.00 0.00 45 1002.0
20200603230021 77 209 0.0 5.0 0.00 0.00 0.00 49 1002.2
20200603224713 77 231 2.0 7.0 0.00 0.00 0.00 54 1002.4
20200603223132 78 243 1.0 5.0 0.00 0.00 0.00 57 1002.4
20200603221546 79 240 1.0 6.0 0.00 0.00 0.00 58 1002.4
20200603220051 79 188 2.0 8.0 0.00 0.00 0.00 59 1002.6
20200603214507 79 255 1.0 5.0 0.00 0.00 0.00 57 1002.6
20200603213140 79 268 0.0 6.0 0.00 0.00 0.00 56 1002.2
20200603211606 79 263 0.0 10.0 0.00 0.00 0.00 53 1002.1
20200603210052 78 183 3.0 8.0 0.00 0.00 0.00 53 1001.9
20200603204535 78 289 0.0 11.0 0.00 0.00 0.00 49 1001.8
20200603203017 78 209 2.0 10.0 0.00 0.00 0.00 52 1001.8
20200603200117 76 275 2.0 11.0 0.00 0.00 0.00 13 1002.3
20200603194623 74 271 2.0 6.0 0.00 0.00 0.00 100 1002.4
20200603193035 72 229 1.0 7.0 0.00 0.00 0.00 100 1002.2
20200603191520 73 187 1.0 7.0 0.00 0.00 0.00 100 1002.3
20200603190158 72 269 1.0 6.0 0.00 0.00 0.00 100 1001.9
20200603184652 72 238 0.0 3.0 0.00 0.00 0.00 100 1001.7
20200603183125 72 250 0.0 1.0 0.00 0.00 0.00 100 1001.6
20200603181528 71 250 0.0 0.0 0.00 0.00 0.00 100 1001.8
20200603180139 72 250 0.0 2.0 0.00 0.00 0.00 100 1002.3
20200603174649 74 276 0.0 7.0 0.00 0.00 0.00 2 1002.8
20200603173104 75 286 1.0 8.0 0.00 0.00 0.00 51 1003.0
20200603171543 76 269 0.0 9.0 0.00 0.00 0.00 58 1002.8
20200603170159 77 239 0.0 8.0 0.00 0.00 0.00 60 1002.6
20200603164646 78 271 3.0 9.0 0.00 0.00 0.00 60 1002.6
20200603163102 78 166 1.0 8.0 0.00 0.00 0.00 58 1002.6
20200603161532 77 28 0.0 4.0 0.00 0.00 0.00 59 1002.0
20200603160020 77 243 0.0 2.0 0.00 0.00 0.00 58 1001.2
20200603154506 76 243 0.0 4.0 0.00 0.00 0.00 59 1001.7